Moose, WY

5:12 AM MST on February 11, 2016 (GMT -0700)
Jackson Hole

Weather History for KJAC - April, 2013

Change the Weather History Date:

Wednesday, April 24, 2013

  Actual Average Record
Temperature  
Mean Temperature 32 °F -  
Max Temperature 46 °F 52 °F 73 °F (1987)
Min Temperature 17 °F 25 °F 10 °F (1985)
Degree Days  
Heating Degree Days 34    
Moisture  
Dew Point 15 °F    
Average Humidity 59    
Maximum Humidity 93    
Minimum Humidity 23    
Precipitation  
Precipitation 0.00 in - - ()
Sea Level Pressure  
Sea Level Pressure 30.17 in    
Wind  
Wind Speed 3 mph (West)    
Max Wind Speed 12 mph    
Max Gust Speed 21 mph    
Visibility 10 miles    
Events      
Averages and records for this station are not official NWS values.
T = Trace of Precipitation, MM = Missing Value Source: NWS Daily Summary

Daily Weather History Graph

Daily Weather History Graph

Search for Another Location

Airport or City:

Trip Planner

Search our weather history database for the weather conditions in past years. The results will help you decide how hot, cold, wet, or windy it might be!

Date:

Astronomy

Apr. 24, 2013 Rise Set
Actual Time 6:25 AM MDT 8:17 PM MDT
Civil Twilight 5:54 AM MDT 8:48 PM MDT
Nautical Twilight 5:17 AM MDT 9:25 PM MDT
Astronomical Twilight 4:36 AM MDT 10:06 PM MDT
Moon 7:24 PM MDT (4/24) 5:33 AM MDT (4/24)
Length of Visible Light 14h 53m
Length of Day
13h 52m
Waxing Gibbous, 98% of the Moon is Illuminated
Apr 24
Waxing Gibbous
Apr 25
Full
May 2
Last Quarter
May 9
New
May 17
First Quarter

Hourly Weather History & Observations

Time (MDT) Temp. Windchill Dew Point Humidity Pressure Visibility Wind Dir Wind Speed Gust Speed Precip Events Conditions
12:15 AM 28.4 °F - 17.6 °F 64% 30.13 in 10.0 mi Calm Calm - N/A   Scattered Clouds
12:35 AM 28.4 °F 20.4 °F 15.8 °F 59% 30.14 in 10.0 mi WNW 8.1 mph - N/A   Mostly Cloudy
12:55 AM 26.6 °F - 15.8 °F 64% 30.14 in 10.0 mi Calm Calm - N/A   Partly Cloudy
1:15 AM 28.4 °F 23.3 °F 15.8 °F 59% 30.15 in 10.0 mi North 4.6 mph - N/A   Clear
1:35 AM 26.6 °F 19.1 °F 17.6 °F 69% 30.15 in 10.0 mi North 6.9 mph - N/A   Clear
1:55 AM 26.6 °F 22.6 °F 17.6 °F 69% 30.15 in 10.0 mi NE 3.5 mph - N/A   Clear
2:15 AM 26.6 °F 22.6 °F 17.6 °F 69% 30.15 in 10.0 mi NE 3.5 mph - N/A   Clear
2:35 AM 24.8 °F - 17.6 °F 74% 30.15 in 10.0 mi Calm Calm - N/A   Clear
2:55 AM 24.8 °F - 17.6 °F 74% 30.15 in 10.0 mi Calm Calm - N/A   Clear
3:15 AM 24.8 °F 20.5 °F 19.4 °F 80% 30.15 in - NNE 3.5 mph - N/A   Clear
3:35 AM 21.2 °F - 17.6 °F 86% 30.15 in 10.0 mi Calm Calm - N/A   Clear
3:55 AM 21.2 °F 13.6 °F 19.4 °F 93% 30.15 in 10.0 mi NNE 5.8 mph - N/A   Clear
4:15 AM 21.2 °F 16.4 °F 17.6 °F 86% 30.16 in 10.0 mi ENE 3.5 mph - N/A   Clear
4:35 AM 21.2 °F 16.4 °F 17.6 °F 86% 30.17 in 10.0 mi NE 3.5 mph - N/A   Clear
4:55 AM 21.2 °F - 17.6 °F 86% 30.17 in 10.0 mi Calm Calm - N/A   Clear
5:15 AM 21.2 °F - 17.6 °F 86% 30.18 in 10.0 mi Calm Calm - N/A   Clear
5:35 AM 17.6 °F - 15.8 °F 93% 30.18 in 10.0 mi Calm Calm - N/A   Clear
5:55 AM 19.4 °F 14.3 °F 17.6 °F 93% 30.18 in 10.0 mi NE 3.5 mph - N/A   Partly Cloudy
6:15 AM 19.4 °F - 17.6 °F 93% 30.19 in 10.0 mi Calm Calm - N/A   Clear
6:52 AM 19.4 °F - 17.6 °F 93% 30.20 in 10.0 mi Calm Calm - N/A   Clear
7:51 AM 23.0 °F - 17.6 °F 80% 30.22 in 10.0 mi Calm Calm - N/A   Clear
8:51 AM 26.6 °F - 21.2 °F 80% 30.23 in 10.0 mi Calm Calm - N/A   Clear
9:52 AM 32.0 °F - 19.4 °F 60% 30.24 in 10.0 mi Calm Calm - N/A   Clear
10:55 AM 35.6 °F - 14.0 °F 41% 30.24 in 10.0 mi Calm Calm - N/A   Clear
11:53 AM 37.4 °F - 12.2 °F 36% 30.23 in 10.0 mi Calm Calm - N/A   Clear
12:51 PM 39.2 °F 35.0 °F 14.0 °F 36% 30.22 in 10.0 mi East 5.8 mph - N/A   Clear
1:55 PM 44.6 °F 40.7 °F 10.4 °F 25% 30.20 in 10.0 mi South 6.9 mph 16.1 mph N/A   Clear
2:53 PM 44.6 °F 39.7 °F 10.4 °F 25% 30.18 in 10.0 mi SW 9.2 mph - N/A   Clear
3:53 PM 46.4 °F 41.1 °F 12.2 °F 25% 30.17 in 10.0 mi WSW 11.5 mph 19.6 mph N/A   Clear
4:51 PM 46.4 °F 42.9 °F 12.2 °F 25% 30.15 in 10.0 mi WSW 6.9 mph 20.7 mph N/A   Clear
5:51 PM 46.4 °F 43.5 °F 12.2 °F 25% 30.14 in 10.0 mi SW 5.8 mph 17.3 mph N/A   Clear
6:52 PM 46.4 °F 42.9 °F 10.4 °F 23% 30.13 in 10.0 mi SW 6.9 mph - N/A   Clear
8:51 PM 39.2 °F 35.9 °F 8.6 °F 28% 30.14 in 10.0 mi SW 4.6 mph - N/A   Clear
8:55 PM 39.2 °F 35.9 °F 8.6 °F 28% 30.15 in 10.0 mi SW 4.6 mph - N/A   Clear
9:15 PM 39.2 °F 37.0 °F 8.6 °F 28% 30.15 in 10.0 mi WSW 3.5 mph - N/A   Clear
9:35 PM 37.4 °F 33.8 °F 10.4 °F 33% 30.15 in 10.0 mi West 4.6 mph - N/A   Clear
9:55 PM 37.4 °F 34.9 °F 12.2 °F 36% 30.15 in 10.0 mi South 3.5 mph - N/A   Clear
10:35 PM 35.6 °F 31.7 °F 14.0 °F 41% 30.15 in 10.0 mi South 4.6 mph - N/A   Clear
10:55 PM 32.0 °F - 19.4 °F 60% 30.15 in - Calm Calm - N/A   Clear
11:55 PM 32.0 °F - 15.8 °F 51% 30.13 in - Calm Calm - N/A   Clear